Inver Grove Heights, MN

8:30 AM CST on January 22, 2017 (GMT -0600)
South Saint Paul Municipal-Fleming

Weather History for KSGS - December, 2012

Change the Weather History Date:

Saturday, December 29, 2012

  Actual Average (KSTP) Record (KSTP)
Temperature  
Mean Temperature 14 °F -  
Max Temperature 20 °F 23 °F 53 °F (1999)
Min Temperature 6 °F 9 °F -9 °F (2013)
Degree Days  
Heating Degree Days 52    
Moisture  
Dew Point 11 °F    
Average Humidity 82    
Maximum Humidity 93    
Minimum Humidity 73    
Precipitation  
Precipitation 0.00 in - - ()
Sea Level Pressure  
Sea Level Pressure 30.08 in    
Wind  
Wind Speed 4 mph (West)    
Max Wind Speed 10 mph    
Max Gust Speed -    
Visibility 9 miles    
Events Snow    
Averages and records for this station are not official NWS values.
T = Trace of Precipitation, MM = Missing Value Source: NWS Daily Summary

Daily Weather History Graph

Daily Weather History Graph

Search for Another Location

Airport or City:

Trip Planner

Search our weather history database for the weather conditions in past years. The results will help you decide how hot, cold, wet, or windy it might be!

Date:

Astronomy

Dec. 29, 2012 Rise Set
Actual Time 7:49 AM CST 4:39 PM CST
Civil Twilight 7:16 AM CST 5:13 PM CST
Nautical Twilight 6:38 AM CST 5:50 PM CST
Astronomical Twilight 6:03 AM CST 6:25 PM CST
Moon 6:17 PM CST (12/29) 8:19 AM CST (12/29)
Length of Visible Light 9h 57m
Length of Day
8h 49m
Full, 98% of the Moon is Illuminated
Dec 29
Full
Jan 4
Last Quarter
Jan 11
New
Jan 18
First Quarter
Jan 26
Full

Hourly Weather History & Observations

Time (CST) Temp. Windchill Dew Point Humidity Pressure Visibility Wind Dir Wind Speed Gust Speed Precip Events Conditions
12:12 AM 11.7 °F - 9.1 °F 90% 30.02 in 7.0 mi Calm Calm - N/A   Clear
12:32 AM 11.7 °F - 9.0 °F 89% 30.02 in 10.0 mi Calm Calm - N/A   Clear
12:52 AM 12.0 °F - 9.5 °F 90% 30.02 in 10.0 mi Calm Calm - N/A   Scattered Clouds
1:12 AM 14.4 °F - 12.4 °F 92% 30.02 in 10.0 mi Calm Calm - N/A   Mostly Cloudy
1:32 AM 15.3 °F - 13.1 °F 91% 30.02 in 10.0 mi Calm Calm - N/A   Overcast
1:52 AM 15.3 °F - 12.9 °F 90% 30.02 in 10.0 mi Calm Calm - N/A   Overcast
2:12 AM 15.6 °F - 13.6 °F 92% 30.02 in 10.0 mi Calm Calm - N/A   Overcast
2:32 AM 17.6 °F - 15.6 °F 92% 30.02 in 10.0 mi Calm Calm - N/A   Overcast
2:52 AM 18.3 °F - 16.3 °F 92% 30.03 in 10.0 mi Calm Calm - N/A   Overcast
3:12 AM 18.3 °F 13.1 °F 16.3 °F 92% 30.03 in 10.0 mi West 3.5 mph - N/A   Overcast
3:32 AM 18.3 °F - 16.5 °F 93% 30.03 in 10.0 mi Calm Calm - N/A   Overcast
3:52 AM 18.5 °F 13.3 °F 16.5 °F 92% 30.03 in 10.0 mi West 3.5 mph - N/A   Overcast
4:12 AM 18.5 °F 11.7 °F 16.7 °F 93% 30.03 in 10.0 mi West 4.6 mph - N/A   Overcast
4:32 AM 18.7 °F 10.6 °F 16.7 °F 92% 30.03 in 10.0 mi West 5.8 mph - N/A   Overcast
4:52 AM 18.9 °F 12.1 °F 16.7 °F 91% 30.04 in 10.0 mi West 4.6 mph - N/A   Overcast
5:12 AM 19.2 °F 11.3 °F 16.5 °F 89% 30.04 in 10.0 mi West 5.8 mph - N/A   Overcast
5:32 AM 19.4 °F 12.8 °F 16.3 °F 88% 30.04 in 10.0 mi West 4.6 mph - N/A   Overcast
5:52 AM 19.9 °F 13.4 °F 15.8 °F 84% 30.04 in 10.0 mi West 4.6 mph - N/A   Overcast
6:12 AM 20.3 °F 11.5 °F 15.8 °F 83% 30.05 in 10.0 mi NW 6.9 mph - N/A   Overcast
6:32 AM 20.8 °F 13.2 °F 14.7 °F 77% 30.05 in 10.0 mi NW 5.8 mph - N/A   Overcast
7:12 AM 20.7 °F 13.0 °F 15.3 °F 80% 30.05 in 10.0 mi West 5.8 mph - N/A   Overcast
7:32 AM 19.9 °F 13.4 °F 15.8 °F 84% 30.06 in 10.0 mi West 4.6 mph - N/A   Overcast
7:52 AM 19.4 °F 12.8 °F 15.8 °F 86% 30.06 in 10.0 mi West 4.6 mph - N/A   Overcast
8:12 AM 19.2 °F 12.5 °F 15.6 °F 86% 30.06 in 10.0 mi WSW 4.6 mph - N/A   Overcast
8:32 AM 19.0 °F 9.0 °F 14.9 °F 84% 30.07 in 10.0 mi West 8.1 mph - N/A   Overcast
8:52 AM 18.5 °F 9.3 °F 14.0 °F 83% 30.07 in 10.0 mi West 6.9 mph - N/A   Overcast
9:12 AM 17.6 °F 8.2 °F 13.1 °F 83% 30.07 in 10.0 mi West 6.9 mph - N/A   Overcast
9:32 AM 17.6 °F 8.2 °F 13.5 °F 84% 30.08 in 10.0 mi West 6.9 mph - N/A   Overcast
9:52 AM 17.2 °F 6.8 °F 12.6 °F 82% 30.09 in 10.0 mi West 8.1 mph - N/A   Overcast
10:12 AM 17.2 °F 7.8 °F 12.4 °F 81% 30.10 in 10.0 mi West 6.9 mph - N/A   Overcast
10:32 AM 17.2 °F 6.0 °F 12.6 °F 82% 30.10 in 4.0 mi WSW 9.2 mph - N/A   Haze
10:52 AM 16.7 °F 4.5 °F 12.4 °F 83% 30.10 in 1.5 mi West 10.4 mph - N/A Snow Light Snow
11:12 AM 17.1 °F 5.8 °F 12.2 °F 81% 30.09 in 2.0 mi WNW 9.2 mph - N/A Snow Light Snow
11:32 AM 17.1 °F 8.7 °F 12.2 °F 81% 30.09 in 2.0 mi West 5.8 mph - N/A Snow Light Snow
11:52 AM 16.3 °F 6.7 °F 11.3 °F 81% 30.09 in 5.0 mi West 6.9 mph - N/A   Haze
12:12 PM 16.5 °F 5.1 °F 10.4 °F 77% 30.08 in 7.0 mi West 9.2 mph - N/A   Overcast
12:52 PM 16.7 °F 5.3 °F 10.2 °F 76% 30.07 in 10.0 mi WSW 9.2 mph - N/A   Mostly Cloudy
1:12 PM 17.1 °F 6.6 °F 10.6 °F 76% 30.07 in 10.0 mi West 8.1 mph - N/A   Scattered Clouds
1:32 PM 17.2 °F 7.8 °F 10.4 °F 75% 30.06 in 10.0 mi WSW 6.9 mph - N/A   Scattered Clouds
1:52 PM 17.6 °F 8.2 °F 10.8 °F 75% 30.06 in 10.0 mi SW 6.9 mph - N/A   Scattered Clouds
2:12 PM 17.6 °F 6.4 °F 10.4 °F 73% 30.07 in 10.0 mi West 9.2 mph - N/A   Clear
2:32 PM 17.6 °F 7.3 °F 10.8 °F 75% 30.07 in 10.0 mi WSW 8.1 mph - N/A   Scattered Clouds
2:52 PM 17.6 °F 5.7 °F 10.4 °F 73% 30.08 in 10.0 mi West 10.4 mph - N/A   Scattered Clouds
3:12 PM 17.4 °F 5.4 °F 10.2 °F 73% 30.08 in 10.0 mi WSW 10.4 mph - N/A   Scattered Clouds
3:32 PM 17.6 °F 7.3 °F 10.4 °F 73% 30.08 in 10.0 mi West 8.1 mph - N/A   Mostly Cloudy
3:52 PM 17.6 °F 9.3 °F 10.4 °F 73% 30.09 in 10.0 mi West 5.8 mph - N/A   Overcast
4:12 PM 17.4 °F 7.1 °F 10.4 °F 74% 30.09 in 10.0 mi WSW 8.1 mph - N/A   Overcast
4:32 PM 17.1 °F 7.6 °F 10.2 °F 75% 30.09 in 10.0 mi WSW 6.9 mph - N/A   Overcast
5:12 PM 16.3 °F 5.7 °F 9.5 °F 74% 30.09 in 10.0 mi West 8.1 mph - N/A   Overcast
5:32 PM 15.8 °F 4.2 °F 9.3 °F 76% 30.10 in 10.0 mi WSW 9.2 mph - N/A   Overcast
5:52 PM 15.4 °F 4.6 °F 9.0 °F 76% 30.10 in 10.0 mi West 8.1 mph - N/A   Overcast
6:12 PM 14.4 °F 1.6 °F 8.1 °F 76% 30.11 in 10.0 mi West 10.4 mph - N/A   Mostly Cloudy
6:32 PM 13.1 °F 0.9 °F 7.3 °F 78% 30.11 in 10.0 mi West 9.2 mph - N/A   Clear
6:52 PM 12.2 °F -0.2 °F 6.6 °F 78% 30.12 in 10.0 mi West 9.2 mph - N/A   Scattered Clouds
7:12 PM 11.7 °F -1.7 °F 6.4 °F 80% 30.13 in 10.0 mi West 10.4 mph - N/A   Scattered Clouds
7:32 PM 11.3 °F -1.3 °F 5.9 °F 79% 30.13 in 10.0 mi WSW 9.2 mph - N/A   Scattered Clouds
7:52 PM 10.9 °F 0.2 °F 5.9 °F 80% 30.13 in 10.0 mi West 6.9 mph - N/A   Clear
8:12 PM 10.4 °F 0.8 °F 5.9 °F 82% 30.13 in 10.0 mi West 5.8 mph - N/A   Clear
8:52 PM 9.7 °F 1.4 °F 5.0 °F 81% 30.14 in 10.0 mi West 4.6 mph - N/A   Clear
9:12 PM 9.3 °F -0.5 °F 5.0 °F 83% 30.15 in 10.0 mi West 5.8 mph - N/A   Clear
9:32 PM 9.1 °F -0.7 °F 4.8 °F 83% 30.15 in 10.0 mi West 5.8 mph - N/A   Clear
9:52 PM 8.6 °F 2.0 °F 4.5 °F 83% 30.15 in 10.0 mi West 3.5 mph - N/A   Clear
10:12 PM 8.1 °F 1.4 °F 4.1 °F 84% 30.16 in 10.0 mi West 3.5 mph - N/A   Clear
10:32 PM 7.7 °F -0.9 °F 3.7 °F 84% 30.17 in 10.0 mi West 4.6 mph - N/A   Clear
10:52 PM 7.7 °F -0.9 °F 3.6 °F 83% 30.18 in 7.0 mi West 4.6 mph - N/A   Clear
11:12 PM 7.5 °F -1.1 °F 3.2 °F 82% 30.18 in 10.0 mi West 4.6 mph - N/A   Clear
11:32 PM 7.3 °F 0.5 °F 3.0 °F 82% 30.18 in 10.0 mi West 3.5 mph - N/A   Clear
11:52 PM 6.8 °F -0.1 °F 2.3 °F 82% 30.17 in 10.0 mi West 3.5 mph - N/A   Clear